CAPE
0 0 0 0 0 0 0 0 0 878 814 370 693 698 619 753 765 267 349 104 163 392 753 960 1032 1113 1118 1195 1187 1146 1121 1155 1160 1123 1003 905 773 648 427 434 373 192 5 0 0 0 0 0 0
0 0 0 0 0 0 0 0 864 807 463 315 565 407 519 772 640 661 639 162 117 259 590 840 963 1113 1199 1144 1183 1124 1055 1030 946 882 900 914 562 361 196 244 270 120 0 0 0 0 0 0 0
0 0 0 0 0 0 0 1124 531 461 345 431 255 289 638 669 799 801 736 256 68 221 491 895 928 1042 1185 1222 1139 1015 894 808 821 860 914 657 373 229 120 240 149 17 0 0 0 0 0 0 0
0 0 0 0 0 0 0 722 844 610 404 223 105 74 197 338 659 629 531 167 158 485 577 579 748 932 1132 1160 1057 919 862 733 653 611 659 406 253 149 83 214 127 0 0 0 0 0 0 0 0
0 0 0 0 0 8 179 479 182 247 236 279 267 43 207 674 517 338 484 339 396 416 472 422 563 895 1062 935 934 879 749 547 424 447 455 407 193 66 36 199 105 38 1 0 0 0 0 0 0
0 0 0 0 0 609 495 213 153 71 62 137 42 67 103 673 651 526 384 335 144 132 186 265 638 727 624 596 673 597 488 380 356 380 387 341 268 229 237 218 154 114 39 19 5 1 0 0 0
0 0 0 0 0 759 421 219 90 36 30 41 99 152 55 22 239 445 295 237 31 126 201 354 415 438 378 385 452 398 351 308 313 281 246 218 211 175 190 199 190 123 68 55 18 0 0 0 0
0 0 0 0 10 333 173 151 102 113 107 0 72 261 247 16 21 0 87 265 152 298 270 254 452 421 357 386 361 263 190 170 153 131 109 95 68 58 79 75 135 125 64 28 0 0 0 0 10
0 0 0 0 250 138 25 71 0 35 0 8 13 0 344 308 54 0 9 36 93 158 263 314 558 406 331 311 302 206 184 114 81 79 48 5 0 0 25 7 70 105 56 25 3 2 0 0 0
0 0 0 160 223 92 7 50 5 10 36 0 0 12 534 115 138 278 40 11 112 109 302 394 598 382 334 322 137 78 66 8 0 0 0 0 0 0 66 0 14 66 64 24 46 25 12 5 0
0 0 75 264 127 39 0 12 5 0 0 0 0 58 258 0 2 69 139 38 105 116 210 336 437 339 81 138 37 1 0 0 1 0 0 39 177 78 167 9 34 25 68 43 70 20 1 3 0
0 19 403 415 198 38 38 0 0 0 0 9 0 339 318 0 0 13 123 137 199 101 45 16 45 13 0 19 0 0 1 61 262 307 193 81 75 22 5 3 84 79 0 0 0 0 0 0 0
0 167 114 82 16 0 0 0 0 0 120 321 399 1003 679 97 3 23 102 234 45 1 16 4 0 0 0 37 127 186 130 273 189 245 447 238 176 57 152 4 0 0 0 0 0 0 0 0 0
0 58 46 20 4 18 10 0 1 3 38 144 934 760 317 219 57 163 330 188 0 5 1 0 1 0 214 112 0 0 0 0 0 25 139 187 37 19 3 0 0 0 0 0 0 0 0 0 0
1 20 83 43 6 0 0 0 15 7 73 104 381 355 104 51 0 46 119 44 3 7 5 5 53 251 129 0 0 0 0 0 0 0 0 0 0 0 0 0 0 0 0 0 0 0 0 0 0
0 0 2 1 7 0 0 0 4 129 146 120 78 341 33 199 4 57 62 0 5 3 14 82 307 70 0 0 0 0 0 0 0 0 0 0 0 0 0 0 0 0 0 0 0 0 0 0 0
0 0 0 0 1 1 0 0 25 167 149 101 64 44 120 2 0 0 2 48 89 60 111 79 2 0 0 0 0 0 0 0 0 0 0 0 0 0 0 0 0 0 0 0 0 0 0 0 0
0 0 0 0 0 1 0 0 34 83 119 71 43 10 0 0 0 0 0 23 188 248 222 66 0 0 0 0 0 0 0 0 0 0 0 0 0 0 0 0 0 0 0 0 0 0 0 0 0
0 0 0 0 0 0 0 4 63 63 93 70 9 5 3 0 10 3 15 0 238 257 129 0 0 0 0 0 0 0 0 0 0 0 0 0 0 0 0 0 0 0 0 0 0 0 0 0 0
0 0 0 0 0 0 0 0 12 58 2 0 32 27 0 125 134 210 222 183 500 308 47 0 0 0 0 0 0 0 0 0 0 0 0 0 0 0 0 0 0 0 0 0 0 0 0 0 0
6 2 0 0 0 0 0 0 0 3 56 0 0 32 18 123 160 333 444 462 253 170 45 0 0 0 0 2 22 0 0 0 0 0 0 0 0 0 0 0 0 0 0 0 0 0 0 0 0
1 4 19 3 0 0 1 5 0 0 12 8 65 62 157 221 364 560 481 384 401 267 190 188 52 11 27 137 0 0 0 0 0 0 0 0 0 0 0 0 0 0 0 0 0 0 0 0 0
4 0 23 10 13 0 0 0 0 0 1 30 148 223 158 318 426 601 555 399 281 259 172 125 107 83 85 0 0 0 0 0 0 0 0 0 0 0 0 0 0 0 0 0 0 0 0 0 0
48 5 23 2 1 0 5 0 0 0 0 83 145 200 247 316 489 653 488 400 321 203 249 289 84 0 0 0 0 0 0 0 0 0 0 0 0 0 0 0 0 0 0 0 0 0 0 0 0
12 21 12 0 0 5 32 0 2 0 37 61 86 234 342 272 132 357 394 207 59 6 0 0 0 0 0 0 0 0 0 0 0 0 0 0 0 0 0 0 0 0 0 0 0 0 0 0 0
0 4 0 7 0 0 14 3 34 0 0 0 14 176 237 37 4 1 0 0 0 0 0 0 0 0 0 0 0 0 0 0 0 0 0 0 0 0 0 0 0 0 0 0 0 0 0 0 0
5 48 39 6 12 0 5 0 43 0 36 0 2 261 204 15 0 0 0 0 0 0 0 0 0 0 0 0 0 0 0 0 0 0 0 0 0 0 0 0 0 0 0 0 0 0 0 0 0
17 1 19 4 0 0 0 0 11 0 17 98 128 232 221 26 0 0 0 0 0 0 0 0 0 0 0 0 0 0 0 0 0 0 0 0 0 0 0 0 0 0 0 0 0 0 0 0 0
0 0 0 0 0 0 0 0 0 0 0 105 158 187 267 97 0 0 0 0 0 0 0 0 0 0 0 0 0 0 0 0 0 0 0 0 0 0 0 0 0 0 0 0 0 0 0 0 0
0 1 0 0 0 0 0 0 0 0 0 0 19 154 168 16 0 0 0 0 1 1 0 0 0 0 0 0 0 0 0 0 0 0 0 0 0 0 0 0 0 0 0 0 0 0 0 0 0
CIN
0 0 0 0 0 0 0 0 0 -79 -113 -259 -199 -229 -200 -99 -64 -115 -130 -302 -230 -55 -29 -32 -10 0 0 0 0 0 0 0 0 0 0 0 0 -1 0 -1 -5 -55 -131 0 0 0 0 0 0
0 0 0 0 0 0 0 0 -131 -204 -261 -242 -176 -249 -245 -132 -53 -48 -36 -172 -215 -69 -20 -13 -11 0 0 0 0 0 0 0 0 0 0 0 0 -2 -40 -36 -39 -94 0 0 0 0 0 0 0
0 0 0 0 0 0 0 -87 -243 -283 -295 -238 -204 -231 -146 -112 -56 -31 -24 -77 -115 -44 -30 0 -2 -1 0 0 0 0 -2 0 0 0 0 0 -1 -35 -80 -44 -76 -54 0 0 0 0 0 0 0
0 0 0 0 0 0 0 -198 -175 -230 -251 -261 -319 -302 -244 -163 -31 -51 -41 -57 -44 -3 -18 -22 -11 -2 0 0 0 0 0 0 0 0 0 -5 -32 -71 -113 -67 -106 0 0 0 0 0 0 0 0
0 0 0 0 0 -5 -80 -214 -240 -198 -169 -124 -170 -229 -208 -35 -66 -98 -44 -35 -20 -15 -15 -33 -21 -3 0 -1 0 0 0 -1 -5 -4 -5 -14 -76 -140 -173 -96 -128 -215 -255 0 0 0 0 0 0
0 0 0 0 0 -139 -235 -275 -250 -220 -177 -113 -170 -213 -243 -13 -7 -14 -57 -19 -33 -46 -12 -10 -8 -12 -13 -13 -4 -16 -11 -24 -30 -30 -28 -48 -82 -104 -107 -108 -131 -170 -255 -104 -60 -13 0 0 0
0 0 0 0 0 -120 -189 -220 -242 -156 -122 -91 -149 -127 -197 -205 -64 -29 -31 -4 -35 -11 -59 -33 -7 -22 -40 -41 -25 -38 -60 -54 -45 -66 -81 -107 -142 -140 -110 -127 -125 -149 -186 -210 -96 0 0 0 0
0 0 0 0 -3 -193 -264 -265 -281 -250 -84 0 -86 -79 -117 -168 -131 0 -87 -16 -12 -5 -35 -21 -24 -56 -103 -63 -64 -100 -131 -135 -141 -143 -189 -226 -229 -201 -187 -199 -161 -176 -183 -176 0 0 0 -4 -171
0 0 0 0 -28 -220 -285 -211 0 -249 0 -166 -221 -34 -134 -99 -115 0 -71 -27 -46 -28 -27 -37 -12 -60 -86 -89 -92 -133 -140 -191 -258 -239 -291 -248 0 0 -167 -76 -180 -135 -175 -198 -61 -51 0 0 0
0 0 0 -48 -88 -184 -358 -258 -311 -101 -210 0 0 -64 -46 -158 -75 -9 -55 -15 -4 -11 -36 -57 -30 -73 -94 -73 -177 -231 -208 -393 0 0 0 0 0 0 -171 0 -132 -137 -122 -150 -129 -118 -122 -104 0
0 0 -26 -102 -163 -240 -160 -289 -359 0 0 0 0 -103 -139 -4 -18 -66 -26 -6 -60 -53 -32 -48 -47 -84 -194 -169 -256 -182 0 0 -213 0 0 -211 -105 -147 -110 -115 -195 -179 -112 -116 -95 -128 -15 -8 0
0 -19 -74 -93 -129 -203 -167 0 0 0 0 -11 -13 -133 -94 0 0 -20 -56 -103 -21 -66 -120 -200 -234 -245 0 -232 0 0 -44 -242 -75 -75 -87 -138 -122 -123 -165 -20 -103 -60 0 0 0 0 0 0 0
0 -75 -82 -120 -131 -17 0 0 0 0 -137 -74 -76 -30 -45 -100 -134 -90 -94 -43 -103 -34 -203 -225 0 0 0 -87 -190 -128 -182 -117 -135 -104 -62 -100 -108 -117 -88 -69 0 0 0 0 0 0 0 0 0
0 -112 -125 -128 -106 -74 -60 0 -28 -192 -269 -73 -18 -34 -80 -74 -78 -82 -43 -49 -19 -291 -54 0 -109 0 -136 -191 0 0 0 0 0 -227 -138 -111 -166 -239 -80 0 0 0 0 0 0 0 0 0 0
-8 -30 -58 -91 -49 -2 -4 0 -96 -153 -224 -182 -19 -87 -166 -163 0 -242 -153 -232 -347 -255 -306 -252 -195 -139 -155 0 0 0 0 0 0 0 0 0 0 0 0 0 0 0 0 0 0 0 0 0 0
0 0 -44 -3 -46 0 0 0 -14 -32 -46 -48 -58 -86 -151 -132 -273 -227 -225 0 -34 -133 -242 -184 -95 -235 0 0 0 0 0 0 0 0 0 0 0 0 0 0 0 0 0 0 0 0 0 0 0
0 0 0 0 -34 -5 0 0 -60 -65 -67 -59 -96 -97 -87 -8 0 0 -60 -135 -164 -206 -222 -301 -140 0 0 0 0 0 0 0 0 0 0 0 0 0 0 0 0 0 0 0 0 0 0 0 0
0 0 0 0 0 -38 0 0 -68 -70 -55 -89 -107 -182 -99 0 0 0 0 -156 -142 -209 -284 -371 0 0 0 0 0 0 0 0 0 0 0 0 0 0 0 0 0 0 0 0 0 0 0 0 0
0 0 0 0 0 0 0 -51 -66 -74 -132 -137 -292 -176 -215 0 -287 -290 -187 -1 -163 -324 -359 -1 0 0 0 0 0 0 0 0 0 0 0 0 0 0 0 0 0 0 0 0 0 0 0 0 0
0 0 0 -3 0 0 0 0 -84 -167 -83 0 -132 -268 0 -222 -209 -161 -142 -108 -127 -249 -380 0 0 0 0 0 0 0 0 0 0 0 0 0 0 0 0 0 0 0 0 0 0 0 0 0 0
-14 -20 0 -26 -3 0 0 0 0 -22 -211 0 0 -246 -221 -240 -231 -170 -121 -225 -266 -281 -306 -1 0 0 0 -127 -193 0 0 0 0 0 0 0 0 0 0 0 0 0 0 0 0 0 0 0 0
-3 -58 -86 -59 -5 0 -24 -49 0 0 -72 -155 -166 -126 -143 -146 -140 -132 -209 -226 -187 -215 -205 -183 -223 -223 -208 -92 0 0 0 0 0 0 0 0 0 0 0 0 0 0 0 0 0 0 0 0 0
-29 0 -78 -83 -45 0 -31 0 0 0 -46 -55 -60 -72 -145 -173 -154 -160 -196 -214 -237 -218 -219 -204 -177 -184 -103 0 0 0 0 0 0 0 0 0 0 0 0 0 0 0 0 0 0 0 0 0 0
-30 -22 -79 -96 -40 0 -46 -14 0 0 0 -87 -76 -106 -115 -129 -107 -138 -170 -197 -216 -221 -172 -113 -104 0 0 0 0 0 0 0 0 0 0 0 0 0 0 0 0 0 0 0 0 0 0 0 0
-22 -49 -51 -6 0 -34 -42 0 -20 0 -171 -150 -193 -104 -133 -191 -217 -172 -162 -235 -340 -140 0 0 0 0 0 0 0 0 0 0 0 0 0 0 0 0 0 0 0 0 0 0 0 0 0 0 0
0 -135 -2 -28 0 0 -106 -41 -26 0 -9 0 -202 -161 -197 -331 -369 -48 0 0 0 0 0 0 0 0 0 0 0 0 0 0 0 0 0 0 0 0 0 0 0 0 0 0 0 0 0 0 0
-173 -192 -133 -31 -79 0 -26 -32 -116 0 -112 -8 -53 -189 -195 -357 0 0 0 0 0 0 0 0 0 0 0 0 0 0 0 0 0 0 0 0 0 0 0 0 0 0 0 0 0 0 0 0 0
-47 -114 -32 -3 0 0 0 0 -77 0 -144 -174 -164 -182 -192 -334 0 0 0 0 0 0 0 0 0 0 0 0 0 0 0 0 0 0 0 0 0 0 0 0 0 0 0 0 0 0 0 0 0
0 0 0 0 0 0 0 0 0 0 -26 -120 -151 -188 -186 -250 0 0 0 0 0 -86 0 0 0 0 0 0 0 0 0 0 0 0 0 0 0 0 0 0 0 0 0 0 0 0 0 0 0
0 -3 -3 0 0 0 0 0 0 0 0 -8 -180 -172 -213 -323 0 0 0 0 -131 -139 -3 0 0 0 0 0 0 0 0 0 0 0 0 0 0 0 0 0 0 0 0 0 0 0 0 0 0
Wind_Speed
5 5 1 3 3 3 5 11 4 6 7 4 10 16 14 14 5 3 5 17 22 14 11 14 17 17 16 17 17 18 19 20 20 18 18 18 17 16 16 15 14 15 16 16 16 16 14 14 14
3 3 1 3 3 1 8 10 6 3 5 3 9 8 11 9 7 8 8 14 21 17 12 12 18 18 17 17 16 18 19 19 19 17 17 17 17 16 17 15 14 14 16 16 16 16 15 14 13
2 4 3 5 4 8 7 3 6 4 4 4 6 9 4 6 4 2 12 17 14 16 16 12 17 17 17 17 17 16 18 18 17 17 17 18 17 16 16 15 14 14 15 15 15 15 15 13 13
1 5 5 2 11 18 13 7 9 6 9 8 12 8 5 4 2 4 9 15 16 14 15 14 16 17 18 18 16 17 17 18 17 16 16 18 17 16 17 15 14 14 14 14 14 13 12 11 10
1 2 2 4 12 10 2 6 2 6 6 3 6 5 3 5 10 7 6 14 15 16 9 14 16 19 19 17 16 16 17 17 16 15 16 16 17 16 15 13 13 12 13 12 12 11 8 9 9
2 3 3 7 12 7 12 12 15 11 13 11 5 6 3 5 10 7 4 14 14 16 7 11 15 16 17 16 15 15 16 16 15 15 15 15 15 14 14 12 11 10 10 9 8 8 6 6 8
6 3 8 11 12 3 5 3 4 5 2 4 12 5 4 4 6 11 10 14 13 14 13 9 8 12 16 15 13 14 15 14 13 14 13 13 13 12 11 11 10 9 7 6 5 5 4 5 8
4 5 8 10 7 3 2 1 3 10 5 10 3 6 7 8 9 11 11 13 10 9 13 12 8 9 10 9 13 12 13 12 12 12 12 12 12 12 11 10 10 8 8 5 3 1 3 4 8
1 2 7 9 2 6 3 2 4 7 5 6 10 10 10 18 16 14 13 11 7 9 7 11 10 9 10 8 9 11 12 11 11 9 10 8 4 6 8 7 9 8 6 5 4 5 4 6 7
2 2 6 0 6 5 7 7 4 1 2 8 14 12 9 13 15 15 17 11 10 10 12 7 9 10 10 8 7 6 7 4 5 5 6 4 5 5 5 5 8 5 4 3 5 4 4 4 1
8 8 4 5 6 10 6 5 4 8 2 4 18 21 14 14 12 13 16 16 14 13 6 9 10 10 9 8 5 3 3 3 4 5 4 3 3 3 3 2 2 1 4 3 2 3 3 5 5
6 5 8 4 3 6 4 2 2 7 5 15 21 14 13 13 11 13 18 18 15 9 8 8 8 11 8 6 5 4 4 3 3 4 6 4 3 4 3 3 4 3 4 5 4 3 5 6 6
10 8 9 6 4 10 8 8 5 4 11 15 19 20 16 13 11 11 7 9 8 10 8 8 7 7 6 8 5 6 5 6 5 5 6 4 4 4 4 5 5 4 4 4 5 5 5 6 7
5 14 14 6 8 8 5 4 5 10 20 10 18 19 16 25 10 8 10 11 12 12 8 6 7 6 10 9 10 7 5 5 5 5 4 6 5 5 6 5 4 4 4 4 5 5 5 5 5
5 6 5 7 7 2 2 8 6 3 23 21 17 15 20 30 25 24 19 14 14 12 11 9 8 8 12 10 8 6 4 5 5 4 6 6 6 6 6 5 4 4 4 6 6 6 5 5 6
5 4 1 11 16 4 4 7 4 9 8 10 13 13 21 26 25 23 19 16 18 17 15 11 8 9 9 10 5 5 5 4 4 4 4 6 7 7 5 5 4 3 4 4 4 4 4 5 4
5 1 3 6 14 14 6 5 5 8 7 8 8 11 14 11 16 17 18 19 18 17 15 12 12 9 10 9 7 6 6 4 3 4 4 6 5 6 5 5 3 4 4 4 3 4 3 3 4
3 4 5 8 9 13 7 8 8 8 9 9 8 7 9 10 9 10 15 17 19 15 16 15 11 10 7 7 6 4 4 3 3 3 4 6 4 6 5 4 4 5 4 4 4 4 4 2 3
9 8 11 10 11 9 9 11 13 8 9 6 4 8 8 10 8 9 8 11 12 15 15 14 15 9 8 4 4 3 3 3 2 3 5 5 5 5 6 5 5 4 5 4 3 2 3 3 3
12 6 25 16 6 6 8 8 9 12 11 12 10 6 10 10 8 8 8 8 14 14 13 13 12 10 7 5 3 4 4 3 4 4 5 6 6 7 6 6 4 5 4 5 3 3 1 1 4
5 4 2 5 7 2 3 3 6 6 9 7 13 10 11 15 11 8 8 11 13 13 12 12 12 12 9 8 4 3 4 4 3 3 3 4 7 6 7 6 5 4 3 1 2 2 3 1 2
1 5 5 6 5 2 4 3 3 7 6 15 14 13 11 12 12 10 12 12 11 10 9 12 13 12 8 7 8 9 5 6 4 4 4 4 6 6 6 6 5 4 2 0 2 2 2 2 0
6 8 5 4 6 3 3 7 7 5 3 7 8 10 12 15 16 13 13 13 11 12 9 10 10 8 7 9 9 7 4 4 5 6 6 4 2 4 5 4 2 2 2 3 3 2 1 1 2
6 4 2 5 2 2 9 6 6 9 12 5 7 8 10 11 12 14 11 10 9 7 7 7 7 7 8 8 7 8 9 7 6 4 4 3 2 4 6 7 5 4 3 2 2 2 3 4 3
6 3 4 7 7 5 5 4 10 4 13 14 12 9 10 10 11 12 12 8 8 8 8 8 10 8 8 10 9 9 9 8 7 5 4 4 2 3 5 4 4 3 3 5 5 4 4 4 3
3 3 5 5 3 6 4 6 5 7 8 16 13 9 11 11 11 11 13 11 9 8 7 8 9 8 8 9 8 7 8 5 4 5 4 3 3 3 5 5 5 6 6 5 5 3 3 4 2
1 4 6 2 2 3 4 3 6 6 3 10 9 10 10 11 10 13 12 12 10 8 7 7 8 7 8 9 8 7 6 6 5 6 6 3 2 3 4 5 5 5 6 6 5 3 5 1 1
8 14 4 3 2 3 4 3 5 6 5 9 8 9 9 9 9 12 12 13 12 11 8 7 6 11 11 8 7 6 6 4 3 5 4 4 3 3 5 4 4 4 5 5 6 5 6 6 4
1 3 3 4 6 6 1 6 5 10 9 9 10 12 12 12 11 10 10 14 14 14 13 9 12 13 10 8 7 6 4 3 2 3 3 4 3 4 3 2 2 3 3 4 4 4 4 5 4
6 5 5 6 6 3 6 7 2 8 10 10 10 14 14 15 13 10 10 13 13 12 11 12 11 11 8 7 6 4 4 3 4 1 3 4 3 2 3 1 2 4 3 2 2 1 2 2 5
Wind_Direction
219 217 145 10 48 95 266 247 257 356 37 303 42 81 110 42 6 126 115 124 116 114 128 118 116 113 119 115 114 112 105 100 99 96 97 95 89 87 84 82 79 79 78 74 70 65 54 40 28
252 224 322 275 130 338 273 246 115 76 176 229 84 41 48 73 27 105 110 131 126 134 118 125 121 121 120 113 110 107 105 102 99 98 96 95 92 90 88 83 80 80 77 72 66 59 50 37 22
300 209 127 154 207 214 239 64 118 143 172 115 98 40 55 76 140 97 118 132 135 127 126 137 119 116 112 107 106 107 104 100 99 99 100 95 95 93 91 84 79 75 74 73 67 58 47 33 16
278 340 338 126 258 258 231 182 149 113 13 20 113 78 71 350 119 69 111 143 128 120 127 121 113 113 105 109 112 105 101 98 98 100 100 100 98 95 90 84 82 84 84 79 71 61 48 30 7
49 290 220 265 253 330 312 137 221 101 138 120 55 87 52 57 73 56 83 103 110 115 122 127 121 113 111 112 107 102 98 99 100 100 101 102 101 98 95 91 91 92 87 82 78 69 50 32 3
302 110 345 262 278 34 41 40 67 58 89 112 90 113 77 99 96 96 86 105 103 97 85 109 102 106 110 109 103 101 100 102 107 107 106 108 108 105 104 105 98 93 89 82 75 67 49 27 2
196 106 254 279 287 24 356 18 32 331 24 28 159 90 134 152 126 112 98 103 118 125 132 104 118 112 104 101 103 103 104 109 111 112 117 117 115 117 116 111 113 111 102 99 83 64 20 359 353
183 118 281 274 328 105 300 81 178 34 356 341 40 158 175 167 130 110 109 109 122 123 114 157 125 116 105 107 108 111 113 115 120 129 131 132 128 132 135 138 141 139 148 140 115 285 289 352 342
282 308 271 281 196 155 227 201 176 193 138 45 0 344 134 129 122 116 112 99 108 103 123 147 137 126 114 116 119 117 121 133 135 139 143 119 130 151 165 160 159 179 168 173 186 246 323 342 323
123 163 267 162 120 141 171 204 143 325 96 88 63 307 143 120 129 136 122 121 113 143 181 170 139 136 131 131 137 134 143 149 140 162 157 163 164 190 161 157 189 191 207 237 252 284 315 321 336
250 220 127 50 114 146 154 154 191 138 203 166 171 202 151 128 133 131 132 132 171 179 186 152 155 155 140 146 148 134 149 166 176 163 172 169 114 108 66 48 354 334 242 296 308 324 8 13 29
241 29 122 175 108 98 146 347 147 184 169 203 192 164 144 137 138 139 124 154 174 163 156 123 121 144 140 153 148 155 157 124 91 98 82 88 71 87 84 81 45 19 46 73 77 45 45 36 30
236 107 106 142 132 106 151 211 226 60 46 150 166 153 150 141 90 88 102 203 156 128 123 120 131 135 113 99 102 95 80 82 75 60 70 79 86 75 73 71 74 66 40 52 42 36 29 24 19
107 128 137 145 101 89 320 353 11 88 80 234 158 159 126 116 122 140 195 190 145 130 131 137 141 127 109 108 103 103 96 102 91 72 71 70 68 76 78 72 68 59 61 49 50 33 34 30 19
68 73 136 124 87 72 118 324 260 143 158 202 142 140 126 139 160 167 197 182 141 141 150 164 162 121 122 108 107 112 103 87 86 95 88 85 82 91 94 83 65 61 62 57 54 37 32 31 14
48 46 327 128 126 299 136 281 240 136 140 136 131 147 142 157 163 170 192 159 151 151 155 166 130 120 110 119 103 94 84 87 90 99 93 89 89 98 96 91 77 33 45 79 75 51 35 23 14
50 289 283 110 169 158 250 230 217 166 142 106 118 119 141 138 150 159 148 150 151 153 148 119 118 121 118 105 92 87 87 91 122 111 112 108 114 120 109 110 88 61 101 74 74 49 78 34 2
188 269 273 246 232 155 205 192 196 171 136 142 133 128 123 124 137 136 146 148 156 141 132 130 121 116 111 104 103 112 110 134 155 147 135 143 135 102 106 98 93 76 73 51 58 77 30 46 19
273 248 237 263 200 151 195 156 176 157 104 82 347 142 149 138 142 132 124 131 131 128 130 136 131 135 130 127 134 134 150 160 159 173 148 129 97 83 98 85 75 60 69 55 65 76 64 358 351
295 244 255 235 204 160 191 191 173 142 148 167 207 237 172 137 129 126 125 96 137 135 135 136 137 150 159 161 176 148 143 165 158 161 129 117 102 85 83 77 73 62 55 51 46 75 34 10 22
272 19 334 56 339 202 86 75 357 177 175 199 192 203 175 153 149 141 125 109 123 134 139 140 155 172 186 188 159 108 103 81 104 124 124 123 112 109 110 110 107 104 109 63 11 2 108 256 315
18 299 337 28 58 235 76 228 331 283 176 186 201 176 160 155 148 145 119 123 132 143 157 160 178 184 189 195 149 145 154 156 183 156 143 141 138 136 132 137 144 150 146 142 261 199 212 154 249
212 230 211 200 267 44 272 108 264 228 241 218 197 181 171 167 163 147 148 152 154 164 168 166 181 174 185 173 144 146 146 139 117 126 134 149 165 170 178 154 90 70 35 10 1 346 122 184 170
133 223 49 82 74 177 244 112 255 203 207 207 181 174 157 148 135 145 147 146 157 159 158 179 161 144 120 104 97 118 116 108 99 114 110 95 101 74 70 80 79 76 49 8 330 302 263 224 201
28 41 4 10 15 246 35 156 238 216 166 176 222 163 142 134 134 147 147 148 128 139 144 136 127 117 110 99 102 107 112 112 113 117 118 104 76 64 59 68 54 45 22 12 6 343 307 260 229
58 84 158 161 168 260 128 211 256 230 206 196 198 164 142 141 143 143 141 137 132 131 131 124 128 126 114 108 109 102 93 102 99 81 82 70 68 73 71 53 39 25 15 2 352 335 310 287 289
338 57 262 181 276 62 247 293 350 86 85 149 182 150 148 151 148 151 145 145 143 145 164 153 142 133 125 122 111 100 90 78 76 82 73 64 119 91 70 63 42 13 358 343 337 315 312 357 199
155 185 231 335 165 272 304 299 234 144 160 147 154 156 157 153 155 158 158 159 160 162 170 168 155 130 126 114 111 111 108 90 83 106 186 125 119 86 67 52 34 3 339 337 21 12 19 14 1
175 243 217 160 142 182 140 289 178 169 190 165 177 173 167 165 172 162 160 168 168 172 173 128 125 126 115 111 113 115 122 129 145 179 138 150 127 106 96 75 14 324 13 72 56 32 27 8 357
177 198 181 121 271 184 144 266 117 182 176 175 191 178 175 168 171 166 163 158 162 144 125 129 122 115 120 121 118 132 153 189 197 159 107 109 116 113 118 80 329 298 153 90 49 27 344 346 322